Content
SEND FEEDBACK

Daily
Averages
Monthly
Summary
French Polynesia

PAPEETE, FRENCH POLYNESIA


Home > Oceania > French Polynesia
Elevation: 2 meters     Latitude: 17 33S     Longitude: 149 36W

WEATHER
 
SELECT A DAY
Number of Records: 208,079;   Date Range: 6/30/96 - 7/20/14
 
SHARE

PRINT THIS DATA

[ ← Previous Day ]
WEATHER ALMANAC - 2 JANUARY, 2013
[ Next Day → ]
[ °F ]   °C
Weather ElementAverageHighLow
Temperature27.5 °C31 °C (4:00 pm)24 °C (4:00 am)
Dewpoint21.6 °C23 °C (9:30 am)20 °C (7:00 pm)
Humidity69.7 %89 % (4:00 am)54 % (2:00 pm)
Barometer1008.1 hPa1010.5 hPa (8:00 am)1006.1 hPa (3:00 pm)
Wind Speed9.2 km/h25.3 km/h (11:00 am)
Weather ElementAverage
Visibility12.4 km
Wind DirectionS (182.1 °)

Weather ElementTotal
Precipitation---
Cooling Degree Days9.2 (Base 18.3)
Growing Degree Days17.5 (Base 10)
Averaged from 52 records on 2 January, 2013
WEATHER CONDITIONS BREAKOUT
WIND DIRECTION BREAKOUT
WEATHER BY HOUR - 2 JANUARY, 2013
[ °F ]   °C
Local TimeTemperatureDewpointHumidityBarometerVisibilityWind DirectionWind SpeedGust SpeedPrecipitationEventsConditions
12:30 AM26 °C22 °C78 %1009.1 hPa10 kmVariable3.7 km/hPartly Cloudy
2:00 AM24.4 °C21.7 °C80 %1008.5 hPa19.3 kmSouth (180°)7.4 km/hScattered Clouds
2:00 AM25 °C22 °C83 %1008.1 hPa10 kmSouth (180°)5.6 km/hPartly Cloudy
2:30 AM25 °C22 °C83 %1008.1 hPa10 kmSouth (180°)9.3 km/hPartly Cloudy
3:00 AM25 °C22 °C83 %1008.1 hPa10 kmEast (100°)7.4 km/hPartly Cloudy
3:30 AM25 °C21 °C78 %1008.1 hPa10 kmENE (70°)7.4 km/h
4:00 AM24 °C22 °C89 %1008.1 hPa10 kmVariable3.7 km/h
4:30 AM24 °C21 °C83 %1008.1 hPa10 kmSouth (180°)9.3 km/hPartly Cloudy
5:00 AM24.4 °C21.7 °C79 %1008.8 hPa49.9 kmSouth (170°)7.2 km/hClear
5:00 AM24 °C22 °C89 %1008.1 hPa10 kmSouth (170°)3.7 km/h
5:30 AM24 °C22 °C89 %1009.1 hPa10 kmVariable1.9 km/h
6:00 AM25 °C22 °C83 %1009.1 hPa10 kmESE (120°)5.6 km/hMostly Cloudy
6:30 AM25 °C21 °C78 %1009.1 hPa10 kmSouth (190°)16.7 km/hMostly Cloudy
7:00 AM26 °C22 °C78 %1010.2 hPa10 kmVariable5.6 km/hMostly Cloudy
7:30 AM27 °C22 °C74 %1010.2 hPa10 kmVariable1.9 km/hMostly Cloudy
8:00 AM26.7 °C22.2 °C70 %1010.5 hPa19.3 kmSouth (190°)7.4 km/hMostly Cloudy
8:00 AM27 °C22 °C74 %1010.2 hPa10 kmSouth (190°)7.4 km/hMostly Cloudy
8:30 AM27 °C22 °C74 %1010.2 hPa10 kmVariable1.9 km/hMostly Cloudy
9:00 AM27 °C22 °C74 %1009.1 hPa10 kmNorth (360°)7.4 km/hMostly Cloudy
9:30 AM28 °C23 °C74 %1009.1 hPa10 kmNW (310°)7.4 km/hScattered Clouds
10:00 AM29 °C22 °C66 %1009.1 hPa10 kmWest (270°)11.1 km/hScattered Clouds
10:30 AM30 °C23 °C66 %1009.1 hPa10 kmWest (280°)13 km/hPartly Cloudy
11:00 AM30 °C22.2 °C55 %1009.1 hPa30.6 kmWest (280°)25.3 km/hScattered Clouds
11:00 AM30 °C22 °C62 %1008.1 hPa10 kmWest (280°)13 km/hScattered Clouds
11:30 AM30 °C22 °C62 %1008.1 hPa10 kmWest (280°)9.3 km/hPartly Cloudy
12:00 PM30 °C22 °C62 %1008.1 hPa10 kmWest (260°)7.4 km/hScattered Clouds
12:30 PM30 °C21 °C58 %1007.1 hPa10 kmWNW (290°)9.3 km/hScattered Clouds
1:00 PM30 °C22 °C62 %1007.1 hPa10 kmWNW (290°)16.7 km/hMostly Cloudy
1:30 PM30 °C22 °C62 %1007.1 hPa10 kmWNW (290°)16.7 km/hMostly Cloudy
2:00 PM29.4 °C21.7 °C54 %1007.5 hPa25.7 kmWNW (290°)20.4 km/hMostly Cloudy
2:00 PM30 °C22 °C62 %1007.1 hPa10 kmWNW (290°)20.4 km/hMostly Cloudy
2:30 PM30 °C21 °C58 %1007.1 hPa10 kmWest (280°)13 km/hMostly Cloudy
3:00 PM30 °C21 °C58 %1006.1 hPa10 kmVariable5.6 km/hMostly Cloudy
3:30 PM30 °C21 °C58 %1006.1 hPa10 kmNNW (330°)5.6 km/hMostly Cloudy
4:00 PM31 °C22 °C58 %1006.1 hPa10 kmWest (280°)9.3 km/hScattered Clouds
4:30 PM30 °C22 °C62 %1006.1 hPa10 kmWest (280°)14.8 km/hPartly Cloudy
5:00 PM29.4 °C21.7 °C55 %1006.8 hPa30.6 kmWNW (290°)18.5 km/hScattered Clouds
5:00 PM29 °C22 °C66 %1006.1 hPa10 kmWNW (290°)18.5 km/hScattered Clouds
5:30 PM29 °C22 °C66 %1007.1 hPa10 kmWNW (290°)18.5 km/hScattered Clouds
6:00 PM29 °C21 °C62 %1007.1 hPa10 kmWNW (290°)18.5 km/hScattered Clouds
6:30 PM28 °C21 °C66 %1007.1 hPa10 kmNW (310°)5.6 km/hScattered Clouds
7:00 PM28 °C20 °C62 %1007.1 hPa10 kmCalmPartly Cloudy
7:30 PM28 °C20 °C62 %1008.1 hPa10 kmVariable3.7 km/hPartly Cloudy
8:00 PM27.8 °C21.1 °C59 %1008.5 hPa19.3 kmNW (310°)7.4 km/hPartly Cloudy
8:00 PM28 °C21 °C66 %1008.1 hPa10 kmNW (310°)7.4 km/hScattered Clouds
8:30 PM28 °C21 °C66 %1008.1 hPa10 kmWNW (290°)11.1 km/hScattered Clouds
9:00 PM27 °C21 °C70 %1008.1 hPa10 kmENE (60°)7.4 km/hMostly Cloudy
9:30 PM27 °C21 °C70 %1008.1 hPa10 kmVariable3.7 km/hMostly Cloudy
10:00 PM26 °C21 °C74 %1009.1 hPa10 kmVariable3.7 km/hMostly Cloudy
10:30 PM26 °C21 °C74 %1009.1 hPa10 kmSouth (170°)3.7 km/hScattered Clouds
11:00 PM26 °C21 °C74 %1009.1 hPa10 kmVariable3.7 km/hMostly Cloudy
11:30 PM26 °C21 °C74 %1008.1 hPa10 kmVariable3.7 km/hScattered Clouds
Hourly data recorded from NTAA, located 0 kilometers away from Papeete, French Polynesia







STORIES FROM OUR PARTNERS